SCOUT B DEB, 29172

Orbit data source: Space-Track

SCOUT B DEB, 29172 is space debris in LEO originally from a launch on Tue, 10 Aug 1965 UTC launched from the Wallops Island (WLPIS). Debris objects in space refer to the collection of defunct objects orbiting the Earth. Examples of debris include non-operational satellites, rocket bodies, and fragments generated from explosions, collisions, or faulty payload assembly.

Loading next visibility...
Identifier
29172, 1965-063W
Orbit
LEO
Country
Flag of USUS
Related business
Manufacturer
Unknown
Mission
Spacecraft
Bus & Motor
Unknown
Mass
Unknown
Launch date (UTC)
1965-08-10 (60 years ago)
Launch vehicle
Unknown
Launch site
Wallops Island (WLPIS)
Object type
Payload
Rocket body
Debris
Shape & HBR
Unknown shape, 0.1 m
Radar Cross Section
Small (<0.1 m²)

Expand to show TLE details & history
Last TLE update: 5 months ago

TLE from 5 months ago
0 SCOUT B DEB
1 29172U 65063W   25248.30622238  .00000170  00000-0  14597-2 0  9994
2 29172  69.2257 269.0521 0759246  13.6336   3.2154 11.80530476564234
Epoch: 2025-09-05T07:20Z
TLE epoch observation values (Epoch: 2025-09-05T07:20:57.613Z)
Latitude
16.22321°
Longitude
-179.54001°
Altitude
1,153.111 km
Speed
7.549 km/s
True Right ascension
18h 21m 25s
True Declination
16° 08' 10"
Sunlit
Object was in daylight at epoch
Visualization orbit readout
Latitude
Unknown
Longitude
Unknown
Altitude
Unknown
Speed
Unknown
Apparent Right ascension
Unknown
Apparent Declination
Unknown
Sunlit
N/A
Visualization observer readout
Local Sidereal Time
08:53:56
Azimuth
Unknown
Elevation
Unknown
Doppler factor
Unknown
Orbital elements
Apogee altitude
2,385.99 km
Perigee altitude
1,149.077 km
Semi-major axis
8,145.67 km
Eccentricity
0.07592
Inclination
69.2257°
RAAN
269.0521°
Arg. of periapsis
13.6336°
True anomaly
3.75423°
Mean anomaly
3.2154°
Eccentric anomaly
3.47941°
Mean motion
2.95225 °/min
Orbital period
121.94 mins
BSTAR
0.0014597
Loading maneuver chart data...
Computing Atmospheric mass density...
Loading historical data...
Loading historical data...
Loading historical data...
Loading historical data...
Loading historical data...
Loading historical data...
Loading historical data...

Documentation

Showing up to 5 results
|